When you browse on this site, cookies collect data to enhance your experience and personalize the content and advertising you see.
Visit our Privacy Policy to learn more. By continuing to use the site, you agree to this use of cookies and data.
  • în România
  • Lista ţărilor
  • Pe 7 zile
  • Temperatura apei
  • Hartă satelitară
  • Meteo pe hartă
  • Widget-uri
  • user-avatar
    Intrare

    Meteo pe oră la Eisenstadt

    Astăzi, 21 Aprilie, Duminică

    Timp Temperatura Precipitaţii Vânt Presiune Umiditate
    00:00 +9°C° 0 mm 2 m/s 729 mmHg 56%
    01:00 +9°C° 0 mm 2 m/s 728 mmHg 57%
    02:00 +9°C° 0 mm 2 m/s 728 mmHg 58%
    03:00 +9°C° 0 mm 1 m/s 728 mmHg 58%
    04:00 +9°C° 0 mm 1 m/s 727 mmHg 59%
    05:00 +10°C° 0 mm 1 m/s 727 mmHg 58%
    06:00 +11°C° 0 mm 1 m/s 727 mmHg 57%
    07:00 +12°C° 0 mm 1 m/s 727 mmHg 56%
    08:00 +14°C° 0 mm 1 m/s 727 mmHg 51%
    09:00 +16°C° 0 mm 1 m/s 727 mmHg 45%
    10:00 +19°C° 0 mm 1 m/s 727 mmHg 40%
    11:00 +20°C° 0 mm 1 m/s 727 mmHg 38%
    12:00 +20°C° 0 mm 1 m/s 726 mmHg 36%
    13:00 +20°C° 0 mm 2 m/s 726 mmHg 34%
    14:00 +20°C° 0 mm 2 m/s 726 mmHg 36%
    15:00 +19°C° 0 mm 2 m/s 725 mmHg 37%
    16:00 +20°C° 0 mm 1 m/s 725 mmHg 38%
    17:00 +18°C° 0 mm 1 m/s 724 mmHg 44%
    18:00 +15°C° 0 mm 1 m/s 724 mmHg 51%
    19:00 +13°C° 0 mm 1 m/s 723 mmHg 58%
    20:00 +12°C° 0 mm 1 m/s 724 mmHg 60%
    21:00 +10°C° 0 mm 0 m/s 724 mmHg 63%
    22:00 +10°C° 0 mm 0 m/s 724 mmHg 65%
    23:00 +9°C° 0 mm 0 m/s 723 mmHg 67%

    Mâine, 22 Aprilie, Luni

    Timp Temperatura Precipitaţii Vânt Presiune Umiditate
    00:00 +9°C° 0 mm 0 m/s 723 mmHg 68%
    01:00 +10°C° 0 mm 1 m/s 723 mmHg 70%
    02:00 +8°C° 0 mm 0 m/s 722 mmHg 71%
    03:00 +8°C° 0 mm 0 m/s 722 mmHg 72%
    04:00 +7°C° 0 mm 0 m/s 721 mmHg 73%
    05:00 +8°C° 0 mm 0 m/s 721 mmHg 70%
    06:00 +10°C° 0 mm 1 m/s 721 mmHg 67%
    07:00 +11°C° 0 mm 1 m/s 721 mmHg 64%
    08:00 +13°C° 0 mm 1 m/s 721 mmHg 60%
    09:00 +14°C° 0 mm 2 m/s 720 mmHg 56%
    10:00 +16°C° 0 mm 2 m/s 720 mmHg 51%
    11:00 +17°C° 0 mm 2 m/s 720 mmHg 49%
    12:00 +18°C° 0 mm 2 m/s 719 mmHg 46%
    13:00 +19°C° 0 mm 2 m/s 719 mmHg 44%
    14:00 +19°C° 0 mm 2 m/s 718 mmHg 43%
    15:00 +19°C° 0 mm 2 m/s 718 mmHg 42%
    16:00 +20°C° 0 mm 1 m/s 718 mmHg 41%
    17:00 +17°C° 0 mm 2 m/s 717 mmHg 48%
    18:00 +16°C° 0 mm 2 m/s 717 mmHg 54%
    19:00 +14°C° 0 mm 2 m/s 717 mmHg 61%
    20:00 +13°C° 0 mm 2 m/s 717 mmHg 67%
    21:00 +13°C° 0 mm 2 m/s 717 mmHg 73%
    22:00 +12°C° 0 mm 2 m/s 717 mmHg 79%
    23:00 +12°C° 0.1 mm 2 m/s 717 mmHg 78%

    Poimâine, 23 Aprilie, Marţi

    Timp Temperatura Precipitaţii Vânt Presiune Umiditate
    00:00 +12°C° 0.1 mm 2 m/s 717 mmHg 78%
    01:00 +12°C° 0.1 mm 2 m/s 717 mmHg 78%
    02:00 +12°C° 0.1 mm 2 m/s 716 mmHg 80%
    03:00 +10°C° 0.1 mm 2 m/s 716 mmHg 82%
    04:00 +10°C° 0.1 mm 3 m/s 716 mmHg 84%
    05:00 +10°C° 0.7 mm 3 m/s 716 mmHg 87%
    06:00 +10°C° 0.7 mm 3 m/s 716 mmHg 91%
    07:00 +10°C° 0.7 mm 4 m/s 716 mmHg 94%
    08:00 +10°C° 1.3 mm 4 m/s 716 mmHg 94%
    09:00 +10°C° 1.3 mm 4 m/s 716 mmHg 94%
    10:00 +10°C° 1.3 mm 4 m/s 716 mmHg 94%
    11:00 +10°C° 0.6 mm 3 m/s 716 mmHg 94%
    12:00 +10°C° 0.6 mm 3 m/s 716 mmHg 94%
    13:00 +10°C° 0.6 mm 3 m/s 716 mmHg 93%
    14:00 +10°C° 1 mm 3 m/s 716 mmHg 94%
    15:00 +12°C° 1 mm 2 m/s 716 mmHg 94%
    16:00 +12°C° 1 mm 2 m/s 715 mmHg 95%
    17:00 +12°C° 0.9 mm 2 m/s 715 mmHg 95%
    18:00 +13°C° 0.9 mm 2 m/s 715 mmHg 95%
    19:00 +13°C° 0.9 mm 2 m/s 715 mmHg 96%
    20:00 +12°C° 0 mm 3 m/s 716 mmHg 96%
    21:00 +11°C° 0 mm 3 m/s 716 mmHg 96%
    22:00 +11°C° 0 mm 4 m/s 716 mmHg 96%
    23:00 +11°C° 0 mm 4 m/s 716 mmHg 96%

    24 Aprilie, Miercuri

    Timp Temperatura Precipitaţii Vânt Presiune Umiditate
    00:00 +11°C° 0 mm 4 m/s 716 mmHg 95%
    01:00 +10°C° 0 mm 5 m/s 716 mmHg 95%
    02:00 +10°C° 0 mm 5 m/s 717 mmHg 94%
    03:00 +10°C° 0 mm 5 m/s 717 mmHg 94%
    04:00 +10°C° 0 mm 5 m/s 717 mmHg 94%
    05:00 +10°C° 0 mm 5 m/s 717 mmHg 92%
    06:00 +11°C° 0 mm 6 m/s 718 mmHg 90%
    07:00 +11°C° 0 mm 6 m/s 718 mmHg 88%
    08:00 +14°C° 0 mm 6 m/s 718 mmHg 83%
    09:00 +15°C° 0 mm 6 m/s 719 mmHg 77%
    10:00 +16°C° 0 mm 7 m/s 719 mmHg 72%
    11:00 +18°C° 0 mm 7 m/s 719 mmHg 66%
    12:00 +20°C° 0 mm 7 m/s 720 mmHg 60%
    13:00 +21°C° 0 mm 7 m/s 720 mmHg 54%
    14:00 +22°C° 0 mm 7 m/s 720 mmHg 53%
    15:00 +22°C° 0 mm 7 m/s 720 mmHg 52%
    16:00 +22°C° 0 mm 7 m/s 720 mmHg 51%
    17:00 +20°C° 0 mm 7 m/s 720 mmHg 56%
    18:00 +19°C° 0 mm 6 m/s 720 mmHg 61%
    19:00 +16°C° 0 mm 6 m/s 720 mmHg 66%
    20:00 +15°C° 0 mm 6 m/s 720 mmHg 67%
    21:00 +15°C° 0 mm 6 m/s 720 mmHg 69%
    22:00 +14°C° 0 mm 6 m/s 721 mmHg 70%
    23:00 +14°C° 0 mm 6 m/s 721 mmHg 71%

    25 Aprilie, Joi

    Timp Temperatura Precipitaţii Vânt Presiune Umiditate
    00:00 +13°C° 0 mm 6 m/s 721 mmHg 72%
    01:00 +13°C° 0 mm 6 m/s 720 mmHg 73%
    02:00 +12°C° 0 mm 5 m/s 721 mmHg 76%
    03:00 +12°C° 0 mm 5 m/s 721 mmHg 78%
    04:00 +11°C° 0 mm 4 m/s 721 mmHg 81%
    05:00 +12°C° 0 mm 3 m/s 722 mmHg 79%
    06:00 +14°C° 0 mm 2 m/s 722 mmHg 77%
    07:00 +15°C° 0 mm 1 m/s 723 mmHg 74%
    08:00 +16°C° 0 mm 2 m/s 723 mmHg 69%
    09:00 +18°C° 0 mm 3 m/s 723 mmHg 63%
    10:00 +20°C° 0 mm 3 m/s 723 mmHg 57%
    11:00 +21°C° 0 mm 4 m/s 723 mmHg 55%
    12:00 +22°C° 0 mm 6 m/s 723 mmHg 52%
    13:00 +23°C° 0 mm 7 m/s 722 mmHg 50%
    14:00 +23°C° 0 mm 7 m/s 722 mmHg 50%
    15:00 +23°C° 0 mm 7 m/s 721 mmHg 50%
    16:00 +23°C° 0 mm 7 m/s 721 mmHg 49%
    17:00 +22°C° 0 mm 7 m/s 721 mmHg 53%
    18:00 +20°C° 0 mm 6 m/s 720 mmHg 57%
    19:00 +19°C° 0 mm 6 m/s 720 mmHg 61%
    20:00 +17°C° 0 mm 6 m/s 720 mmHg 61%
    21:00 +17°C° 0 mm 6 m/s 720 mmHg 61%
    22:00 +16°C° 0 mm 6 m/s 720 mmHg 61%
    23:00 +15°C° 0 mm 6 m/s 720 mmHg 63%

    26 Aprilie, Vineri

    Timp Temperatura Precipitaţii Vânt Presiune Umiditate
    00:00 +15°C° 0 mm 5 m/s 720 mmHg 65%
    01:00 +14°C° 0 mm 5 m/s 720 mmHg 67%
    02:00 +14°C° 0 mm 5 m/s 720 mmHg 69%
    03:00 +13°C° 0 mm 4 m/s 719 mmHg 71%
    04:00 +13°C° 0 mm 4 m/s 719 mmHg 74%
    05:00 +14°C° 0 mm 3 m/s 720 mmHg 72%
    06:00 +15°C° 0 mm 2 m/s 720 mmHg 71%
    07:00 +16°C° 0 mm 1 m/s 720 mmHg 69%
    08:00 +18°C° 0 mm 2 m/s 721 mmHg 64%
    09:00 +19°C° 0 mm 2 m/s 721 mmHg 59%
    10:00 +21°C° 0 mm 2 m/s 722 mmHg 53%
    11:00 +20°C° 0.3 mm 3 m/s 722 mmHg 59%
    12:00 +19°C° 0.3 mm 4 m/s 722 mmHg 64%
    13:00 +16°C° 0.3 mm 5 m/s 722 mmHg 69%
    14:00 +14°C° 1 mm 5 m/s 723 mmHg 72%
    15:00 +11°C° 1 mm 6 m/s 723 mmHg 75%
    16:00 +9°C° 1 mm 7 m/s 723 mmHg 79%
    17:00 +8°C° 0.7 mm 7 m/s 724 mmHg 79%
    18:00 +8°C° 0.7 mm 6 m/s 725 mmHg 79%
    19:00 +8°C° 0.7 mm 6 m/s 725 mmHg 79%
    20:00 +7°C° 0.5 mm 5 m/s 726 mmHg 80%
    21:00 +7°C° 0.5 mm 4 m/s 727 mmHg 81%
    22:00 +7°C° 0.5 mm 4 m/s 727 mmHg 81%
    23:00 +8°C° 0 mm 3 m/s 727 mmHg 81%
    Arată mai mult